Time,TemperatureF,DewpointF,PressureIn,WindDirection,WindDirectionDegrees,WindSpeedMPH,WindSpeedGustMPH,Humidity,HourlyPrecipIn,Conditions,Clouds,dailyrainin,SoftwareType,DateUTC
2013-04-16 00:02:00,43.0,27.0,29.99,NE,40,13.0,18.0,52,-99.99,,,-99.99,,2013-04-16 05:02:00,
2013-04-16 00:12:00,43.0,28.0,29.98,NE,50,12.0,-999.0,56,-99.99,,,-99.99,,2013-04-16 05:12:00,
2013-04-16 00:22:00,43.0,28.0,29.99,NE,40,13.0,20.0,56,-99.99,,,-99.99,,2013-04-16 05:22:00,
2013-04-16 00:32:00,41.0,28.0,29.98,NE,40,10.0,-999.0,60,-99.99,,,-99.99,,2013-04-16 05:32:00,
2013-04-16 00:42:00,41.0,28.0,29.98,NNE,30,13.0,16.0,60,-99.99,,,-99.99,,2013-04-16 05:42:00,
2013-04-16 00:52:00,41.0,28.0,29.96,NE,40,14.0,-999.0,60,-99.99,,,-99.99,,2013-04-16 05:52:00,
2013-04-16 01:02:00,41.0,28.0,29.96,NE,40,14.0,-999.0,60,-99.99,,,-99.99,,2013-04-16 06:02:00,
2013-04-16 01:12:00,41.0,28.0,29.97,NE,40,13.0,-999.0,60,-99.99,,,-99.99,,2013-04-16 06:12:00,
2013-04-16 01:22:00,39.0,28.0,29.99,NE,40,10.0,-999.0,64,-99.99,,,-99.99,,2013-04-16 06:22:00,
2013-04-16 01:32:00,39.0,28.0,29.99,NE,40,12.0,-999.0,64,-99.99,,,-99.99,,2013-04-16 06:32:00,
2013-04-16 01:42:00,39.0,28.0,29.99,NNE,30,8.0,-999.0,64,-99.99,,,-99.99,,2013-04-16 06:42:00,
2013-04-16 01:52:00,39.0,28.0,30.00,NNE,30,8.0,-999.0,64,-99.99,,,-99.99,,2013-04-16 06:52:00,
2013-04-16 02:02:00,39.0,28.0,30.00,NNE,30,8.0,-999.0,64,-99.99,,,-99.99,,2013-04-16 07:02:00,
2013-04-16 02:12:00,39.0,28.0,30.01,NNE,30,9.0,-999.0,64,-99.99,,,-99.99,,2013-04-16 07:12:00,
2013-04-16 02:22:00,39.0,28.0,30.03,NNE,20,7.0,-999.0,64,-99.99,,,-99.99,,2013-04-16 07:22:00,
2013-04-16 02:32:00,39.0,28.0,30.02,North,10,9.0,-999.0,64,-99.99,,,-99.99,,2013-04-16 07:32:00,
2013-04-16 02:42:00,39.0,30.0,30.02,NNE,20,8.0,-999.0,69,-99.99,,,-99.99,,2013-04-16 07:42:00,
2013-04-16 02:53:00,39.0,28.0,30.03,NNE,30,8.0,-999.0,64,-99.99,,,-99.99,,2013-04-16 07:53:00,
2013-04-16 03:02:00,39.0,28.0,30.03,NNE,30,8.0,-999.0,64,-99.99,,,-99.99,,2013-04-16 08:02:00,
2013-04-16 03:12:00,37.0,28.0,30.04,NE,40,8.0,-999.0,69,-99.99,,,-99.99,,2013-04-16 08:12:00,
2013-04-16 03:22:00,37.0,30.0,30.01,NNE,20,12.0,-999.0,74,-99.99,,,-99.99,,2013-04-16 08:22:00,
2013-04-16 03:32:00,39.0,30.0,30.03,NNE,30,12.0,-999.0,69,-99.99,,,-99.99,,2013-04-16 08:32:00,
2013-04-16 03:42:00,39.0,28.0,30.01,NNE,20,14.0,-999.0,64,-99.99,,,-99.99,,2013-04-16 08:42:00,
2013-04-16 03:52:00,39.0,30.0,30.05,NE,40,10.0,-999.0,69,-99.99,,,-99.99,,2013-04-16 08:52:00,
2013-04-16 04:02:00,39.0,30.0,30.05,NE,40,10.0,-999.0,69,-99.99,,,-99.99,,2013-04-16 09:02:00,
2013-04-16 04:12:00,39.0,30.0,30.05,NE,40,12.0,17.0,69,-99.99,,,-99.99,,2013-04-16 09:12:00,
2013-04-16 04:22:00,39.0,30.0,30.05,NNE,30,16.0,-999.0,69,-99.99,,,-99.99,,2013-04-16 09:22:00,
2013-04-16 04:33:00,39.0,30.0,30.05,NE,40,14.0,-999.0,69,-99.99,,,-99.99,,2013-04-16 09:33:00,
2013-04-16 04:42:00,41.0,30.0,30.05,NE,40,14.0,-999.0,65,-99.99,,,-99.99,,2013-04-16 09:42:00,
2013-04-16 04:52:00,39.0,30.0,30.06,NNE,30,13.0,22.0,69,-99.99,,,-99.99,,2013-04-16 09:52:00,
2013-04-16 05:03:00,39.0,30.0,30.06,NNE,30,13.0,22.0,69,-99.99,,,-99.99,,2013-04-16 10:03:00,
2013-04-16 05:13:00,39.0,30.0,30.05,NE,40,16.0,21.0,69,-99.99,,,-99.99,,2013-04-16 10:13:00,
2013-04-16 05:22:00,39.0,30.0,30.07,NNE,30,15.0,18.0,69,-99.99,,,-99.99,,2013-04-16 10:22:00,
2013-04-16 05:32:00,39.0,30.0,30.09,NNE,20,13.0,17.0,69,-99.99,,,-99.99,,2013-04-16 10:32:00,
2013-04-16 05:42:00,39.0,30.0,30.09,NNE,30,13.0,18.0,69,-99.99,,,-99.99,,2013-04-16 10:42:00,
2013-04-16 05:52:00,39.0,30.0,30.08,NNE,30,14.0,21.0,69,-99.99,,,-99.99,,2013-04-16 10:52:00,
2013-04-16 06:02:00,39.0,30.0,30.08,NNE,30,14.0,21.0,69,-99.99,,,-99.99,,2013-04-16 11:02:00,
2013-04-16 06:12:00,39.0,30.0,30.09,NNE,30,15.0,18.0,69,-99.99,,,-99.99,,2013-04-16 11:12:00,
2013-04-16 06:22:00,39.0,30.0,30.09,NNE,30,15.0,-999.0,69,-99.99,,,-99.99,,2013-04-16 11:22:00,
2013-04-16 06:32:00,39.0,30.0,30.09,NNE,30,14.0,22.0,69,-99.99,,,-99.99,,2013-04-16 11:32:00,
2013-04-16 06:42:00,39.0,30.0,30.10,NNE,30,13.0,22.0,69,-99.99,,,-99.99,,2013-04-16 11:42:00,
2013-04-16 06:52:00,39.0,30.0,30.10,NNE,30,15.0,20.0,69,-99.99,,,-99.99,,2013-04-16 11:52:00,
2013-04-16 07:02:00,39.0,30.0,30.10,NNE,30,15.0,20.0,69,-99.99,,,-99.99,,2013-04-16 12:02:00,
2013-04-16 07:12:00,39.0,30.0,30.10,NNE,30,13.0,22.0,69,-99.99,,,-99.99,,2013-04-16 12:12:00,
2013-04-16 07:22:00,39.0,30.0,30.11,NNE,30,13.0,21.0,69,-99.99,,,-99.99,,2013-04-16 12:22:00,
2013-04-16 07:32:00,39.0,30.0,30.11,NNE,30,12.0,18.0,69,-99.99,,,-99.99,,2013-04-16 12:32:00,
2013-04-16 07:42:00,39.0,28.0,30.11,NNE,30,14.0,-999.0,64,-99.99,,,-99.99,,2013-04-16 12:42:00,
2013-04-16 07:52:00,39.0,27.0,30.12,NE,40,14.0,-999.0,60,-99.99,,,-99.99,,2013-04-16 12:52:00,
2013-04-16 08:02:00,39.0,27.0,30.12,NE,40,14.0,-999.0,60,-99.99,,,-99.99,,2013-04-16 13:02:00,
2013-04-16 08:12:00,39.0,28.0,30.12,NNE,30,13.0,-999.0,64,-99.99,,,-99.99,,2013-04-16 13:12:00,
2013-04-16 08:22:00,39.0,28.0,30.12,NNE,30,16.0,22.0,64,-99.99,,,-99.99,,2013-04-16 13:22:00,
2013-04-16 08:32:00,39.0,28.0,30.12,NE,40,14.0,-999.0,64,-99.99,,,-99.99,,2013-04-16 13:32:00,
2013-04-16 08:42:00,39.0,28.0,30.12,NNE,30,14.0,-999.0,64,-99.99,,,-99.99,,2013-04-16 13:42:00,
2013-04-16 08:52:00,39.0,28.0,30.12,NE,50,17.0,23.0,64,-99.99,,,-99.99,,2013-04-16 13:52:00,
2013-04-16 09:02:00,39.0,28.0,30.12,NE,50,17.0,23.0,64,-99.99,,,-99.99,,2013-04-16 14:02:00,
2013-04-16 09:12:00,39.0,28.0,30.14,NE,40,13.0,17.0,64,-99.99,,,-99.99,,2013-04-16 14:12:00,
2013-04-16 09:22:00,39.0,28.0,30.14,NE,40,17.0,23.0,64,-99.99,,,-99.99,,2013-04-16 14:22:00,
2013-04-16 09:32:00,39.0,28.0,30.14,NE,40,15.0,24.0,64,-99.99,,,-99.99,,2013-04-16 14:32:00,
2013-04-16 09:42:00,39.0,28.0,30.14,NE,40,16.0,24.0,64,-99.99,,,-99.99,,2013-04-16 14:42:00,
2013-04-16 09:52:00,39.0,28.0,30.14,NE,40,14.0,-999.0,64,-99.99,,,-99.99,,2013-04-16 14:52:00,
2013-04-16 10:02:00,39.0,28.0,30.14,NE,40,14.0,-999.0,64,-99.99,,,-99.99,,2013-04-16 15:02:00,
2013-04-16 10:12:00,41.0,28.0,30.15,NE,40,15.0,22.0,60,-99.99,,,-99.99,,2013-04-16 15:12:00,
2013-04-16 10:22:00,41.0,28.0,30.14,NE,50,15.0,24.0,60,-99.99,,,-99.99,,2013-04-16 15:22:00,
2013-04-16 10:32:00,41.0,28.0,30.14,NE,50,20.0,-999.0,60,-99.99,,,-99.99,,2013-04-16 15:32:00,
2013-04-16 10:43:00,41.0,28.0,30.15,NE,40,16.0,22.0,60,-99.99,,,-99.99,,2013-04-16 15:43:00,
2013-04-16 10:52:00,41.0,28.0,30.14,NE,40,12.0,17.0,60,-99.99,,,-99.99,,2013-04-16 15:52:00,
2013-04-16 11:03:00,41.0,28.0,30.14,NE,40,12.0,17.0,60,-99.99,,,-99.99,,2013-04-16 16:03:00,
2013-04-16 11:13:00,41.0,28.0,30.14,NE,50,16.0,24.0,60,-99.99,,,-99.99,,2013-04-16 16:13:00,
2013-04-16 11:23:00,43.0,28.0,30.14,NE,40,15.0,24.0,56,-99.99,,,-99.99,,2013-04-16 16:23:00,
2013-04-16 11:32:00,43.0,28.0,30.14,NNE,30,15.0,20.0,56,-99.99,,,-99.99,,2013-04-16 16:32:00,
2013-04-16 11:42:00,43.0,28.0,30.13,NE,40,17.0,23.0,56,-99.99,,,-99.99,,2013-04-16 16:42:00,
2013-04-16 11:52:00,43.0,28.0,30.13,NNE,30,15.0,22.0,56,-99.99,,,-99.99,,2013-04-16 16:52:00,
2013-04-16 12:02:00,43.0,28.0,30.13,NNE,30,15.0,22.0,56,-99.99,,,-99.99,,2013-04-16 17:02:00,
2013-04-16 12:12:00,43.0,27.0,30.14,NE,40,20.0,23.0,52,-99.99,,,-99.99,,2013-04-16 17:12:00,
2013-04-16 12:22:00,43.0,28.0,30.14,NE,40,17.0,-999.0,56,-99.99,,,-99.99,,2013-04-16 17:22:00,
2013-04-16 12:32:00,43.0,28.0,30.14,NNE,30,13.0,-999.0,56,-99.99,,,-99.99,,2013-04-16 17:32:00,
2013-04-16 12:43:00,43.0,28.0,30.14,NE,40,16.0,-999.0,56,-99.99,,,-99.99,,2013-04-16 17:43:00,
2013-04-16 12:52:00,43.0,28.0,30.13,NE,40,15.0,21.0,56,-99.99,,,-99.99,,2013-04-16 17:52:00,
2013-04-16 13:02:00,43.0,28.0,30.13,NE,40,15.0,21.0,56,-99.99,,,-99.99,,2013-04-16 18:02:00,
2013-04-16 13:12:00,43.0,28.0,30.12,NNE,30,15.0,20.0,56,-99.99,,,-99.99,,2013-04-16 18:12:00,
2013-04-16 13:22:00,43.0,28.0,30.12,NNE,30,13.0,17.0,56,-99.99,,,-99.99,,2013-04-16 18:22:00,
2013-04-16 13:32:00,45.0,28.0,30.12,NE,50,17.0,-999.0,52,-99.99,,,-99.99,,2013-04-16 18:32:00,
2013-04-16 13:42:00,45.0,27.0,30.11,NNE,30,16.0,22.0,48,-99.99,,,-99.99,,2013-04-16 18:42:00,
2013-04-16 13:52:00,45.0,28.0,30.11,NE,50,15.0,-999.0,52,-99.99,,,-99.99,,2013-04-16 18:52:00,
2013-04-16 14:02:00,45.0,28.0,30.11,NE,50,15.0,-999.0,52,-99.99,,,-99.99,,2013-04-16 19:02:00,
2013-04-16 14:12:00,45.0,28.0,30.10,NNE,30,14.0,21.0,52,-99.99,,,-99.99,,2013-04-16 19:12:00,
2013-04-16 14:22:00,45.0,27.0,30.10,NE,50,15.0,21.0,48,-99.99,,,-99.99,,2013-04-16 19:22:00,
2013-04-16 14:32:00,45.0,28.0,30.09,NE,40,15.0,21.0,52,-99.99,,,-99.99,,2013-04-16 19:32:00,
2013-04-16 14:42:00,45.0,27.0,30.09,NE,40,17.0,21.0,48,-99.99,,,-99.99,,2013-04-16 19:42:00,
2013-04-16 14:52:00,45.0,27.0,30.09,NE,40,16.0,22.0,48,-99.99,,,-99.99,,2013-04-16 19:52:00,
2013-04-16 15:02:00,45.0,27.0,30.09,NE,40,16.0,22.0,48,-99.99,,,-99.99,,2013-04-16 20:02:00,
2013-04-16 15:12:00,45.0,28.0,30.09,ENE,60,14.0,23.0,52,-99.99,,,-99.99,,2013-04-16 20:12:00,
2013-04-16 15:22:00,45.0,28.0,30.08,NE,40,16.0,22.0,52,-99.99,,,-99.99,,2013-04-16 20:22:00,
2013-04-16 15:32:00,46.0,28.0,30.07,NE,50,16.0,23.0,49,-99.99,,,-99.99,,2013-04-16 20:32:00,
2013-04-16 15:42:00,46.0,30.0,30.07,NE,40,17.0,23.0,52,-99.99,,,-99.99,,2013-04-16 20:42:00,
2013-04-16 15:52:00,45.0,28.0,30.07,ENE,60,15.0,23.0,52,-99.99,,,-99.99,,2013-04-16 20:52:00,
2013-04-16 16:02:00,45.0,28.0,30.07,ENE,60,15.0,23.0,52,-99.99,,,-99.99,,2013-04-16 21:02:00,
2013-04-16 16:12:00,45.0,28.0,30.07,NE,50,16.0,21.0,52,-99.99,,,-99.99,,2013-04-16 21:12:00,
2013-04-16 16:22:00,46.0,28.0,30.07,ENE,60,17.0,22.0,49,-99.99,,,-99.99,,2013-04-16 21:22:00,
2013-04-16 16:32:00,46.0,28.0,30.06,ENE,60,15.0,-999.0,49,-99.99,,,-99.99,,2013-04-16 21:32:00,
2013-04-16 16:43:00,46.0,28.0,30.06,NE,40,16.0,22.0,49,-99.99,,,-99.99,,2013-04-16 21:43:00,
2013-04-16 16:52:00,46.0,30.0,30.06,NE,40,17.0,-999.0,52,-99.99,,,-99.99,,2013-04-16 21:52:00,
2013-04-16 17:02:00,46.0,30.0,30.06,NE,40,17.0,-999.0,52,-99.99,,,-99.99,,2013-04-16 22:02:00,
2013-04-16 17:13:00,46.0,28.0,30.06,ENE,60,9.0,-999.0,49,-99.99,,,-99.99,,2013-04-16 22:13:00,
2013-04-16 17:22:00,46.0,28.0,30.05,ENE,60,17.0,-999.0,49,-99.99,,,-99.99,,2013-04-16 22:22:00,
2013-04-16 17:32:00,46.0,28.0,30.05,ENE,60,13.0,-999.0,49,-99.99,,,-99.99,,2013-04-16 22:32:00,
2013-04-16 17:42:00,46.0,28.0,30.05,ENE,60,16.0,21.0,49,-99.99,,,-99.99,,2013-04-16 22:42:00,
2013-04-16 17:52:00,46.0,28.0,30.04,ENE,70,15.0,-999.0,49,-99.99,,,-99.99,,2013-04-16 22:52:00,
2013-04-16 18:02:00,46.0,28.0,30.04,ENE,70,15.0,-999.0,49,-99.99,,,-99.99,,2013-04-16 23:02:00,
2013-04-16 18:12:00,46.0,28.0,30.04,ENE,60,14.0,-999.0,49,-99.99,,,-99.99,,2013-04-16 23:12:00,
2013-04-16 18:22:00,46.0,28.0,30.04,ENE,70,13.0,21.0,49,-99.99,,,-99.99,,2013-04-16 23:22:00,
2013-04-16 18:32:00,46.0,28.0,30.04,ENE,70,13.0,20.0,49,-99.99,,,-99.99,,2013-04-16 23:32:00,
2013-04-16 18:42:00,46.0,28.0,30.04,ENE,70,13.0,18.0,49,-99.99,,,-99.99,,2013-04-16 23:42:00,
2013-04-16 18:52:00,46.0,28.0,30.04,ENE,70,14.0,21.0,49,-99.99,,,-99.99,,2013-04-16 23:52:00,
2013-04-16 19:02:00,46.0,28.0,30.04,ENE,70,14.0,21.0,49,-99.99,,,-99.99,,2013-04-17 00:02:00,
2013-04-16 19:12:00,46.0,30.0,30.04,ENE,60,16.0,20.0,52,-99.99,,,-99.99,,2013-04-17 00:12:00,
2013-04-16 19:22:00,45.0,28.0,30.04,East,80,15.0,-999.0,52,-99.99,,,-99.99,,2013-04-17 00:22:00,
2013-04-16 19:32:00,45.0,28.0,30.04,ENE,70,15.0,21.0,52,-99.99,,,-99.99,,2013-04-17 00:32:00,
2013-04-16 19:42:00,45.0,28.0,30.04,East,80,15.0,21.0,52,-99.99,,,-99.99,,2013-04-17 00:42:00,
2013-04-16 19:52:00,45.0,28.0,30.05,East,80,13.0,21.0,52,-99.99,,,-99.99,,2013-04-17 00:52:00,
2013-04-16 20:02:00,45.0,28.0,30.05,East,80,13.0,21.0,52,-99.99,,,-99.99,,2013-04-17 01:02:00,
2013-04-16 20:12:00,45.0,28.0,30.04,ENE,60,16.0,-999.0,52,-99.99,,,-99.99,,2013-04-17 01:12:00,
2013-04-16 20:22:00,45.0,30.0,30.04,ENE,70,9.0,-999.0,56,-99.99,,,-99.99,,2013-04-17 01:22:00,
2013-04-16 20:32:00,45.0,30.0,30.04,ENE,70,10.0,-999.0,56,-99.99,,,-99.99,,2013-04-17 01:32:00,
2013-04-16 20:42:00,45.0,30.0,30.04,ENE,70,9.0,-999.0,56,-99.99,,,-99.99,,2013-04-17 01:42:00,
2013-04-16 20:52:00,45.0,30.0,30.04,East,80,10.0,-999.0,56,-99.99,,,-99.99,,2013-04-17 01:52:00,
2013-04-16 21:02:00,45.0,30.0,30.04,East,80,10.0,-999.0,56,-99.99,,,-99.99,,2013-04-17 02:02:00,
2013-04-16 21:12:00,45.0,30.0,30.04,ENE,70,14.0,18.0,56,-99.99,,,-99.99,,2013-04-17 02:12:00,
2013-04-16 21:22:00,45.0,30.0,30.04,ENE,70,12.0,-999.0,56,-99.99,,,-99.99,,2013-04-17 02:22:00,
2013-04-16 21:32:00,45.0,30.0,30.04,ENE,60,12.0,17.0,56,-99.99,,,-99.99,,2013-04-17 02:32:00,
2013-04-16 21:42:00,45.0,30.0,30.05,ENE,70,9.0,-999.0,56,-99.99,,,-99.99,,2013-04-17 02:42:00,
2013-04-16 21:52:00,45.0,30.0,30.04,ENE,70,12.0,-999.0,56,-99.99,,,-99.99,,2013-04-17 02:52:00,
2013-04-16 22:02:00,45.0,30.0,30.04,ENE,70,12.0,-999.0,56,-99.99,,,-99.99,,2013-04-17 03:02:00,
2013-04-16 22:12:00,45.0,30.0,30.06,ENE,70,7.0,-999.0,56,-99.99,,,-99.99,,2013-04-17 03:12:00,
2013-04-16 22:22:00,45.0,30.0,30.04,ENE,60,12.0,-999.0,56,-99.99,,,-99.99,,2013-04-17 03:22:00,
2013-04-16 22:32:00,45.0,32.0,30.05,ENE,70,9.0,-999.0,61,-99.99,,,-99.99,,2013-04-17 03:32:00,
2013-04-16 22:42:00,45.0,32.0,30.06,ENE,70,9.0,-999.0,61,-99.99,,,-99.99,,2013-04-17 03:42:00,
2013-04-16 22:53:00,45.0,32.0,30.06,ENE,70,10.0,16.0,61,-99.99,,,-99.99,,2013-04-17 03:53:00,
2013-04-16 23:03:00,45.0,32.0,30.06,ENE,70,10.0,16.0,61,-99.99,,,-99.99,,2013-04-17 04:03:00,
2013-04-16 23:13:00,45.0,34.0,30.06,East,90,10.0,21.0,65,-99.99,,,-99.99,,2013-04-17 04:13:00,
2013-04-16 23:22:00,45.0,34.0,30.05,ENE,70,13.0,17.0,65,-99.99,,,-99.99,,2013-04-17 04:22:00,
2013-04-16 23:33:00,45.0,34.0,30.05,ENE,70,12.0,20.0,65,-99.99,,,-99.99,,2013-04-17 04:33:00,
2013-04-16 23:42:00,45.0,34.0,30.05,ENE,70,12.0,-999.0,65,-99.99,,,-99.99,,2013-04-17 04:42:00,
2013-04-16 23:52:00,43.0,36.0,30.05,ENE,60,12.0,-999.0,75,-99.99,,,-99.99,,2013-04-17 04:52:00,